WZZ4937 EDDH-EPGD

Flight info

Callsign WZZ4937
Flight time 0h 53m
Altitude 35000
Route RAMAR6G RAMAR L23 GEVNI DCT BINKA DCT LUXAL L730 KOSEX
Aircraft A21N/M-SDE1E2E3FGIJ1J4RWXY/LB1

Departure

Time 2026-05-05 18:07
Airport Hamburg Helmut Schmidt Airport (EDDH)

Arrival

Time 2026-05-05 19:01
Airport Gdańsk Lech Wałęsa Airport (EPGD)
Time Latitude Longitude Altitude Speed Heading
2026-05-05 17:32 53.62734 10.00295 50 ft 0 kts 63°
2026-05-05 17:56 53.62727 10.00271 51 ft 4 kts 63°
2026-05-05 17:56 53.62716 10.00235 52 ft 1 kts 63°
2026-05-05 17:57 53.62703 10.00207 50 ft 4 kts 18°
2026-05-05 17:57 53.62683 10.00211 48 ft 3 kts 333°
2026-05-05 17:57 53.62672 10.00221 54 ft 0 kts 333°
2026-05-05 18:02 53.62686 10.00208 53 ft 4 kts 333°
2026-05-05 18:02 53.62717 10.00182 56 ft 6 kts 333°
2026-05-05 18:02 53.62761 10.00143 56 ft 8 kts 333°
2026-05-05 18:03 53.62807 10.00104 56 ft 4 kts 333°
2026-05-05 18:03 53.62835 10.00078 56 ft 6 kts 323°
2026-05-05 18:03 53.62852 10.00003 56 ft 8 kts 263°
2026-05-05 18:03 53.62827 9.99903 55 ft 10 kts 245°
2026-05-05 18:04 53.62819 9.99795 54 ft 10 kts 307°
2026-05-05 18:04 53.62840 9.99767 54 ft 0 kts 334°
2026-05-05 18:06 53.62841 9.99766 54 ft 2 kts 334°
2026-05-05 18:06 53.63269 9.99397 56 ft 103 kts 333°
2026-05-05 18:06 53.64094 9.98685 56 ft 164 kts 333°
2026-05-05 18:07 53.65193 9.97715 429 ft 180 kts 334°
2026-05-05 18:07 53.66296 9.96764 1267 ft 178 kts 337°
2026-05-05 18:07 53.67441 9.95808 1910 ft 190 kts 337°
2026-05-05 18:07 53.68682 9.94863 2564 ft 202 kts 346°
2026-05-05 18:08 53.70090 9.94634 3315 ft 207 kts
2026-05-05 18:08 53.71552 9.94668 4113 ft 214 kts
2026-05-05 18:08 53.73020 9.95101 4920 ft 217 kts 21°
2026-05-05 18:08 53.74265 9.96637 5445 ft 236 kts 52°
2026-05-05 18:09 53.75085 9.99181 5869 ft 259 kts 71°
2026-05-05 18:09 53.75345 10.02298 6447 ft 276 kts 88°
2026-05-05 18:09 53.75386 10.05568 7237 ft 282 kts 89°
2026-05-05 18:09 53.75420 10.08918 8066 ft 288 kts 89°
2026-05-05 18:10 53.75465 10.12321 8906 ft 293 kts 89°
2026-05-05 18:10 53.75518 10.15801 9557 ft 299 kts 89°
2026-05-05 18:10 53.75576 10.19327 9821 ft 305 kts 89°
2026-05-05 18:10 53.75639 10.23068 9961 ft 332 kts 89°
2026-05-05 18:11 53.75703 10.27018 10611 ft 338 kts 89°
2026-05-05 18:11 53.75772 10.31008 11413 ft 341 kts 89°
2026-05-05 18:11 53.75841 10.35029 12213 ft 344 kts 89°
2026-05-05 18:11 53.75961 10.39099 12998 ft 349 kts 84°
2026-05-05 18:12 53.76280 10.43185 13780 ft 353 kts 82°
2026-05-05 18:12 53.76632 10.47318 14468 ft 357 kts 82°
2026-05-05 18:12 53.76983 10.51492 15175 ft 361 kts 82°
2026-05-05 18:12 53.77332 10.55712 15878 ft 365 kts 82°
2026-05-05 18:13 53.77680 10.59986 16580 ft 369 kts 83°
2026-05-05 18:13 53.78028 10.64328 17195 ft 376 kts 83°
2026-05-05 18:13 53.78377 10.68750 17821 ft 383 kts 83°
2026-05-05 18:13 53.78728 10.73240 18430 ft 387 kts 83°
2026-05-05 18:14 53.79082 10.77782 19005 ft 392 kts 83°
2026-05-05 18:14 53.79437 10.82375 19584 ft 396 kts 83°
2026-05-05 18:14 53.79796 10.87013 20163 ft 400 kts 83°
2026-05-05 18:14 53.80158 10.91693 20736 ft 404 kts 83°
2026-05-05 18:15 53.80519 10.96426 21295 ft 408 kts 84°
2026-05-05 18:15 53.80883 11.01208 21856 ft 412 kts 84°
2026-05-05 18:15 53.81252 11.06045 22304 ft 416 kts 84°
2026-05-05 18:15 53.81618 11.10856 22682 ft 420 kts 84°
2026-05-05 18:16 53.81987 11.15771 23246 ft 423 kts 84°
2026-05-05 18:16 53.82357 11.20725 23756 ft 426 kts 84°
2026-05-05 18:16 53.82727 11.25722 24219 ft 429 kts 84°
2026-05-05 18:16 53.83100 11.30747 24676 ft 433 kts 84°
2026-05-05 18:17 53.83473 11.35817 25118 ft 436 kts 84°
2026-05-05 18:17 53.83844 11.40938 25552 ft 439 kts 84°
2026-05-05 18:17 53.84216 11.46086 25988 ft 443 kts 85°
2026-05-05 18:17 53.84589 11.51283 26412 ft 446 kts 85°
2026-05-05 18:18 53.84962 11.56512 26827 ft 449 kts 85°
2026-05-05 18:18 53.85337 11.61788 27215 ft 453 kts 85°
2026-05-05 18:18 53.85719 11.67103 27601 ft 456 kts 85°
2026-05-05 18:18 53.86111 11.72453 27999 ft 460 kts 85°
2026-05-05 18:19 53.86496 11.77851 28372 ft 463 kts 85°
2026-05-05 18:19 53.86877 11.83280 28753 ft 466 kts 85°
2026-05-05 18:19 53.87255 11.88747 29125 ft 469 kts 85°
2026-05-05 18:19 53.87632 11.94253 29496 ft 472 kts 85°
2026-05-05 18:20 53.88003 11.99786 29847 ft 474 kts 85°
2026-05-05 18:20 53.88254 12.03546 30059 ft 476 kts 86°
2026-05-05 18:20 53.88752 12.10966 30453 ft 480 kts 85°
2026-05-05 18:20 53.89134 12.16610 30645 ft 485 kts 85°
2026-05-05 18:21 53.89392 12.20462 30810 ft 487 kts 86°
2026-05-05 18:21 53.89770 12.26191 31066 ft 490 kts 86°
2026-05-05 18:21 53.90146 12.31948 31345 ft 493 kts 86°
2026-05-05 18:21 53.90521 12.37732 31669 ft 493 kts 86°
2026-05-05 18:22 53.90892 12.43513 32005 ft 494 kts 86°
2026-05-05 18:22 53.91264 12.49302 32334 ft 494 kts 86°
2026-05-05 18:22 53.91628 12.55102 32660 ft 494 kts 86°
2026-05-05 18:22 53.91985 12.60902 32979 ft 494 kts 86°
2026-05-05 18:23 53.92343 12.66700 33290 ft 495 kts 86°
2026-05-05 18:23 53.92706 12.72503 33590 ft 495 kts 86°
2026-05-05 18:23 53.93067 12.78311 33886 ft 495 kts 86°
2026-05-05 18:23 53.93420 12.84043 34154 ft 495 kts 86°
2026-05-05 18:24 53.93776 12.89920 34455 ft 493 kts 86°
2026-05-05 18:24 53.94122 12.95700 34763 ft 491 kts 86°
2026-05-05 18:24 53.94462 13.01464 34913 ft 490 kts 86°
2026-05-05 18:25 53.95140 13.12940 34912 ft 488 kts 86°
2026-05-05 18:25 53.95802 13.24400 34882 ft 488 kts 87°
2026-05-05 18:26 53.96449 13.35864 34893 ft 488 kts 87°
2026-05-05 18:26 53.97082 13.47337 34890 ft 488 kts 86°
2026-05-05 18:27 53.97708 13.58816 34897 ft 488 kts 87°
2026-05-05 18:27 53.98325 13.70224 34923 ft 489 kts 87°
2026-05-05 18:28 53.99241 13.87598 34897 ft 491 kts 87°
2026-05-05 18:28 53.99833 13.99149 34899 ft 491 kts 87°
2026-05-05 18:29 54.00421 14.10710 34905 ft 491 kts 87°
2026-05-05 18:29 54.00990 14.22272 34903 ft 491 kts 87°
2026-05-05 18:30 54.01550 14.33834 34911 ft 491 kts 87°
2026-05-05 18:30 54.02101 14.45395 34901 ft 490 kts 87°
2026-05-05 18:31 54.02632 14.56871 34903 ft 490 kts 87°
2026-05-05 18:31 54.03159 14.68421 34896 ft 489 kts 87°
2026-05-05 18:32 54.03671 14.79967 34893 ft 489 kts 87°
2026-05-05 18:32 54.04174 14.91512 34887 ft 489 kts 88°
2026-05-05 18:33 54.04666 15.03056 34891 ft 488 kts 87°
2026-05-05 18:33 54.05146 15.14587 34915 ft 489 kts 88°
2026-05-05 18:34 54.05611 15.26106 34682 ft 484 kts 88°
2026-05-05 18:34 54.05842 15.31794 34392 ft 481 kts 88°
2026-05-05 18:34 54.06064 15.37475 34137 ft 480 kts 88°
2026-05-05 18:35 54.06283 15.43145 33891 ft 480 kts 88°
2026-05-05 18:35 54.06504 15.48798 33467 ft 477 kts 88°
2026-05-05 18:35 54.06723 15.54413 32933 ft 474 kts 88°
2026-05-05 18:35 54.06936 15.59992 32400 ft 471 kts 88°
2026-05-05 18:36 54.07143 15.65545 31835 ft 469 kts 88°
2026-05-05 18:36 54.07344 15.71076 31283 ft 467 kts 88°
2026-05-05 18:36 54.07540 15.76582 30745 ft 465 kts 88°
2026-05-05 18:36 54.07737 15.82065 30225 ft 463 kts 88°
2026-05-05 18:37 54.07932 15.87518 29656 ft 460 kts 88°
2026-05-05 18:37 54.08116 15.92943 29070 ft 458 kts 89°
2026-05-05 18:37 54.08295 15.98335 28508 ft 454 kts 89°
2026-05-05 18:37 54.08472 16.03684 27973 ft 450 kts 89°
2026-05-05 18:38 54.08773 16.08944 27590 ft 442 kts 84°
2026-05-05 18:38 54.09147 16.14071 27284 ft 431 kts 84°
2026-05-05 18:38 54.09523 16.19089 27000 ft 424 kts 84°
2026-05-05 18:38 54.09880 16.23982 26742 ft 421 kts 84°
2026-05-05 18:39 54.10223 16.28916 26480 ft 419 kts 85°
2026-05-05 18:39 54.10559 16.33833 25992 ft 418 kts 84°
2026-05-05 18:39 54.10895 16.38793 25039 ft 427 kts 85°
2026-05-05 18:39 54.11229 16.43847 24352 ft 429 kts 84°
2026-05-05 18:40 54.11564 16.48868 23851 ft 424 kts 84°
2026-05-05 18:40 54.11895 16.53851 23310 ft 421 kts 84°
2026-05-05 18:40 54.12220 16.58780 22742 ft 417 kts 84°
2026-05-05 18:40 54.12540 16.63677 22122 ft 415 kts 84°
2026-05-05 18:41 54.12858 16.68542 21594 ft 410 kts 84°
2026-05-05 18:41 54.13170 16.73342 21092 ft 405 kts 84°
2026-05-05 18:41 54.13476 16.78091 20610 ft 400 kts 84°
2026-05-05 18:41 54.13772 16.82789 20147 ft 395 kts 84°
2026-05-05 18:42 54.14060 16.87420 19692 ft 390 kts 84°
2026-05-05 18:42 54.14337 16.91995 19252 ft 386 kts 84°
2026-05-05 18:42 54.14610 16.96511 18831 ft 380 kts 84°
2026-05-05 18:42 54.14883 17.00973 18418 ft 375 kts 84°
2026-05-05 18:43 54.15159 17.05365 17981 ft 370 kts 84°
2026-05-05 18:43 54.15436 17.09701 17528 ft 365 kts 84°
2026-05-05 18:43 54.15704 17.13974 17121 ft 359 kts 84°
2026-05-05 18:43 54.15974 17.18355 16731 ft 385 kts 84°
2026-05-05 18:44 54.16251 17.22903 16337 ft 384 kts 85°
2026-05-05 18:44 54.16521 17.27421 15931 ft 381 kts 85°
2026-05-05 18:44 54.16788 17.31907 15526 ft 379 kts 85°
2026-05-05 18:44 54.17046 17.36367 15125 ft 377 kts 85°
2026-05-05 18:45 54.17300 17.40805 14728 ft 374 kts 85°
2026-05-05 18:45 54.17560 17.45213 14319 ft 372 kts 85°
2026-05-05 18:45 54.17817 17.49585 13914 ft 370 kts 85°
2026-05-05 18:45 54.18071 17.53937 13476 ft 367 kts 85°
2026-05-05 18:46 54.18320 17.58261 13034 ft 364 kts 85°
2026-05-05 18:46 54.18563 17.62537 12628 ft 360 kts 85°
2026-05-05 18:46 54.18805 17.66779 12229 ft 357 kts 85°
2026-05-05 18:46 54.19043 17.70982 11805 ft 354 kts 85°
2026-05-05 18:47 54.19273 17.75150 11386 ft 351 kts 85°
2026-05-05 18:47 54.19502 17.79278 10981 ft 348 kts 85°
2026-05-05 18:47 54.19729 17.83374 10603 ft 345 kts 85°
2026-05-05 18:47 54.19950 17.87433 10215 ft 342 kts 85°
2026-05-05 18:48 54.20162 17.91458 9828 ft 339 kts 85°
2026-05-05 18:48 54.20373 17.95452 9371 ft 336 kts 85°
2026-05-05 18:48 54.20580 17.99402 8920 ft 333 kts 85°
2026-05-05 18:48 54.20781 18.03272 8489 ft 330 kts 85°
2026-05-05 18:49 54.20986 18.07154 8096 ft 327 kts 85°
2026-05-05 18:49 54.21059 18.11071 7852 ft 325 kts 90°
2026-05-05 18:49 54.21033 18.14872 7692 ft 324 kts 91°
2026-05-05 18:49 54.21008 18.18714 7554 ft 323 kts 91°
2026-05-05 18:50 54.20991 18.22540 7405 ft 319 kts 91°
2026-05-05 18:50 54.20980 18.26336 7007 ft 319 kts 90°
2026-05-05 18:50 54.20973 18.30169 6615 ft 317 kts 90°
2026-05-05 18:50 54.20961 18.33858 6250 ft 312 kts 90°
2026-05-05 18:51 54.20946 18.37502 5971 ft 301 kts 90°
2026-05-05 18:51 54.20929 18.41015 5761 ft 290 kts 90°
2026-05-05 18:51 54.20911 18.44397 5519 ft 280 kts 90°
2026-05-05 18:51 54.20893 18.47699 5172 ft 276 kts 90°
2026-05-05 18:52 54.20875 18.50959 4802 ft 273 kts 90°
2026-05-05 18:52 54.20853 18.54177 4512 ft 269 kts 90°
2026-05-05 18:52 54.20838 18.57321 4253 ft 260 kts 90°
2026-05-05 18:52 54.20823 18.60402 4019 ft 251 kts 90°
2026-05-05 18:53 54.20808 18.63257 3965 ft 236 kts 89°
2026-05-05 18:53 54.20791 18.66016 3968 ft 231 kts 89°
2026-05-05 18:53 54.20774 18.68763 3989 ft 232 kts 90°
2026-05-05 18:53 54.20754 18.71509 4001 ft 231 kts 90°
2026-05-05 18:54 54.20735 18.74254 4003 ft 231 kts 89°
2026-05-05 18:54 54.20894 18.76965 3995 ft 230 kts 71°
2026-05-05 18:54 54.21707 18.79277 3995 ft 229 kts 43°
2026-05-05 18:54 54.23051 18.80704 4006 ft 229 kts 23°
2026-05-05 18:55 54.24486 18.81681 4009 ft 213 kts 21°
2026-05-05 18:55 54.25776 18.82549 4037 ft 188 kts 21°
2026-05-05 18:55 54.26991 18.83347 4030 ft 187 kts 18°
2026-05-05 18:55 54.28263 18.83474 3997 ft 187 kts 342°
2026-05-05 18:56 54.29239 18.82044 3996 ft 191 kts 302°
2026-05-05 18:56 54.29744 18.79946 4010 ft 191 kts 290°
2026-05-05 18:56 54.30160 18.77787 3988 ft 191 kts 290°
2026-05-05 18:56 54.30609 18.75648 3833 ft 191 kts 291°
2026-05-05 18:57 54.31098 18.73537 3609 ft 190 kts 294°
2026-05-05 18:57 54.31610 18.71448 3359 ft 190 kts 294°
2026-05-05 18:57 54.32127 18.69356 3107 ft 191 kts 294°
2026-05-05 18:57 54.32646 18.67262 2850 ft 191 kts 295°
2026-05-05 18:58 54.33161 18.65183 2586 ft 189 kts 295°
2026-05-05 18:58 54.33667 18.63136 2368 ft 181 kts 295°
2026-05-05 18:58 54.34130 18.61265 2124 ft 160 kts 295°
2026-05-05 18:58 54.34537 18.59619 1876 ft 139 kts 296°
2026-05-05 18:59 54.34910 18.58117 1675 ft 136 kts 296°
2026-05-05 18:59 54.35279 18.56624 1491 ft 136 kts 296°
2026-05-05 18:59 54.35647 18.55136 1302 ft 135 kts 297°
2026-05-05 18:59 54.36013 18.53655 1113 ft 135 kts 296°
2026-05-05 19:00 54.36381 18.52170 926 ft 136 kts 296°
2026-05-05 19:00 54.36754 18.50675 699 ft 137 kts 295°
2026-05-05 19:00 54.37124 18.49176 530 ft 136 kts 295°
2026-05-05 19:00 54.37463 18.47822 473 ft 99 kts 293°
2026-05-05 19:01 54.37641 18.47104 464 ft 27 kts 292°
2026-05-05 19:01 54.37739 18.46854 462 ft 20 kts 316°
2026-05-05 19:01 54.37832 18.46729 464 ft 7 kts 323°
2026-05-05 19:01 54.37835 18.46725 464 ft 2 kts 323°
2026-05-05 19:02 54.37855 18.46699 464 ft 5 kts 323°
2026-05-05 19:02 54.37894 18.46650 465 ft 8 kts 323°
2026-05-05 19:02 54.37934 18.46599 465 ft 8 kts 325°
2026-05-05 19:02 54.37995 18.46588 465 ft 11 kts 22°
2026-05-05 19:03 54.38036 18.46618 465 ft 7 kts 16°
2026-05-05 19:03 54.38073 18.46587 465 ft 5 kts 294°
2026-05-05 19:03 54.38082 18.46550 463 ft 4 kts 293°
2026-05-05 19:03 54.38085 18.46537 465 ft 0 kts 293°
2026-05-05 19:04 54.38088 18.46525 465 ft 3 kts 293°
2026-05-05 19:04 54.38095 18.46499 463 ft 4 kts 294°
2026-05-05 19:04 54.38120 18.46489 465 ft 3 kts
2026-05-05 19:04 54.38135 18.46496 465 ft 2 kts 21°
2026-05-05 19:05 54.38141 18.46500 465 ft 0 kts 22°